Location: Newark
(25.4800°N, 85.7200°E)
Time: 07:22:05
(UTC+00:00)

Vanguard 1 Rocket - Pass Details

Date: 23 August 2019
Orbit: 651 x 4225 km, 34.3° (Epoch: 19 September)

Event Time Altitude Azimuth Distance (km) Brightness Sun altitude
Rises 19:54:49 0° 263° (W) 3,155 - -46.5°
Reaches altitude 10° 19:57:22 10° 270° (W) 2,099 - -46.2°
Maximum altitude 20:01:39 44° 344° (NNW) 897 - -45.6°
Drops below altitude 10° 20:06:16 10° 58° (ENE) 2,266 - -45.0°
Exits shadow 20:06:34 - 59° (ENE) 2,388 10.1 -44.9°
Sets 20:09:07 0° 64° (ENE) 3,444 11.0 -44.6°
